2016-04-10 00:01:06 r, 15.28m,0000000068Hz,0000006749c,0000000.015s, 019.3C,00002195
2016-04-10 00:11:06 r, 15.30m,0000000066Hz,0000006901c,0000000.015s, 019.0C,00002195
2016-04-10 00:21:06 r, 15.38m,0000000062Hz,0000007422c,0000000.016s, 019.3C,00002195
2016-04-10 00:31:06 r, 15.25m,0000000071Hz,0000006570c,0000000.014s, 019.3C,00002195
2016-04-10 00:41:06 r, 15.18m,0000000075Hz,0000006170c,0000000.013s, 019.3C,00002195
2016-04-10 00:51:09 r, 15.22m,0000000072Hz,0000006370c,0000000.014s, 019.3C,00002195
2016-04-10 01:01:06 r, 15.28m,0000000068Hz,0000006768c,0000000.015s, 019.3C,00002195
2016-04-10 01:11:09 r, 15.31m,0000000066Hz,0000006965c,0000000.015s, 019.6C,00002195
2016-04-10 01:21:07 r, 15.39m,0000000062Hz,0000007437c,0000000.016s, 019.6C,00002195
2016-04-10 01:31:06 r, 15.05m,0000000084Hz,0000005488c,0000000.012s, 019.9C,00002195
2016-04-10 01:41:06 r, 15.10m,0000000081Hz,0000005706c,0000000.012s, 019.9C,00002195
2016-04-10 01:51:07 r, 15.01m,0000000088Hz,0000005248c,0000000.011s, 020.3C,00002195
2016-04-10 02:01:06 r, 15.08m,0000000082Hz,0000005623c,0000000.012s, 020.6C,00002195
2016-04-10 02:11:07 r, 15.15m,0000000077Hz,0000005980c,0000000.013s, 020.6C,00002195
2016-04-10 02:21:06 r, 15.19m,0000000074Hz,0000006239c,0000000.014s, 020.6C,00002195
2016-04-10 02:31:06 r, 15.43m,0000000059Hz,0000007721c,0000000.017s, 020.3C,00002195
2016-04-10 02:41:06 r, 15.42m,0000000060Hz,0000007657c,0000000.017s, 020.3C,00002195
2016-04-10 02:51:06 r, 15.49m,0000000057Hz,0000008162c,0000000.018s, 020.3C,00002195
2016-04-10 03:01:06 r, 16.02m,0000000035Hz,0000013252c,0000000.029s, 019.9C,00002195
2016-04-10 03:11:06 r, 15.76m,0000000044Hz,0000010502c,0000000.023s, 019.9C,00002195
2016-04-10 03:21:06 r, 15.17m,0000000076Hz,0000006087c,0000000.013s, 019.9C,00002195
2016-04-10 03:31:07 r, 15.43m,0000000059Hz,0000007741c,0000000.017s, 019.9C,00002195
2016-04-10 03:41:06 r, 15.39m,0000000062Hz,0000007424c,0000000.016s, 019.6C,00002195
2016-04-10 03:51:07 r, 15.71m,0000000045Hz,0000010063c,0000000.022s, 019.6C,00002195
2016-04-10 04:01:08 r, 15.65m,0000000049Hz,0000009498c,0000000.021s, 019.3C,00002195
2016-04-10 04:11:06 r, 15.99m,0000000036Hz,0000012983c,0000000.028s, 019.3C,00002195
2016-04-10 04:21:06 r, 15.87m,0000000040Hz,0000011636c,0000000.025s, 019.0C,00002195
2016-04-10 04:31:09 r, 15.65m,0000000048Hz,0000009505c,0000000.021s, 019.0C,00002195
2016-04-10 04:41:06 r, 15.60m,0000000050Hz,0000009134c,0000000.020s, 018.6C,00002195
2016-04-10 04:51:07 r, 15.61m,0000000050Hz,0000009158c,0000000.020s, 018.3C,00002195
2016-04-10 05:01:07 r, 16.09m,0000000033Hz,0000014208c,0000000.031s, 017.7C,00002195
2016-04-10 05:11:08 r, 15.60m,0000000051Hz,0000009127c,0000000.020s, 017.4C,00002195
2016-04-10 05:21:07 r, 15.92m,0000000038Hz,0000012138c,0000000.026s, 017.0C,00002195
2016-04-10 05:31:06 r, 15.73m,0000000046Hz,0000010207c,0000000.022s, 017.0C,00002195
2016-04-10 05:41:06 r, 15.42m,0000000060Hz,0000007642c,0000000.017s, 017.0C,00002195
2016-04-10 05:51:07 r, 15.21m,0000000072Hz,0000006319c,0000000.014s, 017.0C,00002195
2016-04-10 06:01:07 r, 14.87m,0000000099Hz,0000004630c,0000000.010s, 017.0C,00002195
2016-04-10 06:11:06 r, 13.28m,0000000435Hz,0000000000c,0000000.000s, 016.4C,00002195
2016-04-10 06:21:06 r, 11.25m,0000002824Hz,0000000000c,0000000.000s, 016.4C,00002195
2016-04-10 06:31:07 r, 09.56m,0000013353Hz,0000000000c,0000000.000s, 016.1C,00002195
2016-04-10 06:41:06 r, 08.41m,0000038417Hz,0000000000c,0000000.000s, 015.7C,00002195
2016-04-10 06:51:08 r, 07.67m,0000076044Hz,0000000000c,0000000.000s, 015.7C,00002195
2016-04-10 07:01:06 r, 07.00m,0000141628Hz,0000000000c,0000000.000s, 015.7C,00002195
2016-04-10 07:11:06 r, 06.27m,0000277702Hz,0000000000c,0000000.000s, 015.7C,00002195
2016-04-10 07:21:06 r, 06.49m,0000225771Hz,0000000000c,0000000.000s, 015.4C,00002195
2016-04-10 07:31:07 r, 06.10m,0000323918Hz,0000000000c,0000000.000s, 015.4C,00002195
2016-04-10 07:41:06 r, 00.00m,0000459067Hz,0000000000c,0000000.000s, 015.4C,00002195
2016-04-10 07:51:06 r, 00.00m,0000562638Hz,0000000000c,0000000.000s, 015.4C,00002195
2016-04-10 08:01:07 r, 00.00m,0000562633Hz,0000000000c,0000000.000s, 015.4C,00002195
2016-04-10 08:11:06 r, 00.00m,0000562660Hz,0000000000c,0000000.000s, 015.7C,00002195
2016-04-10 08:21:06 r, 00.00m,0000562627Hz,0000000000c,0000000.000s, 015.4C,00002195
2016-04-10 08:31:06 r, 00.00m,0000562719Hz,0000000000c,0000000.000s, 015.7C,00002195
2016-04-10 08:41:06 r, 00.00m,0000562701Hz,0000000000c,0000000.000s, 015.7C,00002195
2016-04-10 08:51:06 r, 00.00m,0000562706Hz,0000000000c,0000000.000s, 015.7C,00002195
2016-04-10 09:01:09 r, 00.00m,0000562654Hz,0000000000c,0000000.000s, 015.7C,00002195
2016-04-10 09:11:06 r, 00.00m,0000562751Hz,0000000000c,0000000.000s, 016.1C,00002195
2016-04-10 09:21:07 r, 00.00m,0000562673Hz,0000000000c,0000000.000s, 016.1C,00002195
2016-04-10 09:31:09 r, 00.00m,0000562767Hz,0000000000c,0000000.000s, 016.1C,00002195
2016-04-10 09:41:06 r, 00.00m,0000562908Hz,0000000000c,0000000.000s, 016.4C,00002195
2016-04-10 09:51:06 r, 00.00m,0000562849Hz,0000000000c,0000000.000s, 016.4C,00002195
2016-04-10 10:01:08 r, 00.00m,0000562857Hz,0000000000c,0000000.000s, 016.4C,00002195
2016-04-10 10:11:06 r, 00.00m,0000562959Hz,0000000000c,0000000.000s, 016.4C,00002195
2016-04-10 10:21:06 r, 00.00m,0000562900Hz,0000000000c,0000000.000s, 016.7C,00002195
2016-04-10 10:31:06 r, 00.00m,0000563124Hz,0000000000c,0000000.000s, 017.0C,00002195
2016-04-10 10:41:06 r, 00.00m,0000562976Hz,0000000000c,0000000.000s, 017.4C,00002195
2016-04-10 10:51:07 r, 00.00m,0000563102Hz,0000000000c,0000000.000s, 017.4C,00002195
2016-04-10 11:01:07 r, 00.00m,0000563123Hz,0000000000c,0000000.000s, 017.4C,00002195
2016-04-10 11:11:06 r, 00.00m,0000563157Hz,0000000000c,0000000.000s, 017.7C,00002195
2016-04-10 11:21:07 r, 00.00m,0000563135Hz,0000000000c,0000000.000s, 018.0C,00002195
2016-04-10 11:31:07 r, 00.00m,0000563085Hz,0000000000c,0000000.000s, 017.7C,00002195
2016-04-10 11:41:06 r, 00.00m,0000563051Hz,0000000000c,0000000.000s, 017.4C,00002195
2016-04-10 11:51:09 r, 00.00m,0000563039Hz,0000000000c,0000000.000s, 017.7C,00002195
2016-04-10 12:01:07 r, 00.00m,0000563086Hz,0000000000c,0000000.000s, 017.7C,00002195
2016-04-10 12:11:08 r, 00.00m,0000563198Hz,0000000000c,0000000.000s, 018.0C,00002195
2016-04-10 12:21:07 r, 00.00m,0000563132Hz,0000000000c,0000000.000s, 018.6C,00002195
2016-04-10 12:31:07 r, 00.00m,0000563181Hz,0000000000c,0000000.000s, 019.0C,00002195
2016-04-10 12:41:06 r, 00.00m,0000563261Hz,0000000000c,0000000.000s, 019.0C,00002195
2016-04-10 12:51:07 r, 00.00m,0000563336Hz,0000000000c,0000000.000s, 019.3C,00002195
2016-04-10 13:01:07 r, 00.00m,0000563328Hz,0000000000c,0000000.000s, 020.3C,00002195
2016-04-10 13:11:06 r, 00.00m,0000563537Hz,0000000000c,0000000.000s, 020.3C,00002195
2016-04-10 13:21:06 r, 00.00m,0000563353Hz,0000000000c,0000000.000s, 019.9C,00002195
2016-04-10 13:31:09 r, 00.00m,0000563307Hz,0000000000c,0000000.000s, 019.6C,00002195
2016-04-10 13:41:06 r, 00.00m,0000563259Hz,0000000000c,0000000.000s, 019.6C,00002195
2016-04-10 13:51:06 r, 00.00m,0000563411Hz,0000000000c,0000000.000s, 019.9C,00002195
2016-04-10 14:01:09 r, 00.00m,0000563310Hz,0000000000c,0000000.000s, 019.9C,00002195
2016-04-10 14:11:06 r, 00.00m,0000563376Hz,0000000000c,0000000.000s, 020.3C,00002195
2016-04-10 14:21:06 r, 00.00m,0000563319Hz,0000000000c,0000000.000s, 019.9C,00002195
2016-04-10 14:31:06 r, 00.00m,0000563270Hz,0000000000c,0000000.000s, 019.6C,00002195
2016-04-10 14:41:06 r, 00.00m,0000563221Hz,0000000000c,0000000.000s, 019.6C,00002195
2016-04-10 14:51:06 r, 00.00m,0000563291Hz,0000000000c,0000000.000s, 019.9C,00002195
2016-04-10 15:01:06 r, 00.00m,0000563369Hz,0000000000c,0000000.000s, 020.6C,00002195
2016-04-10 15:11:06 r, 00.00m,0000563473Hz,0000000000c,0000000.000s, 020.9C,00002195
2016-04-10 15:21:06 r, 00.00m,0000563619Hz,0000000000c,0000000.000s, 021.2C,00002195
2016-04-10 15:31:07 r, 00.00m,0000563699Hz,0000000000c,0000000.000s, 022.2C,00002195
2016-04-10 15:41:06 r, 00.00m,0000563632Hz,0000000000c,0000000.000s, 021.5C,00002195
2016-04-10 15:51:06 r, 00.00m,0000563478Hz,0000000000c,0000000.000s, 021.2C,00002195
2016-04-10 16:01:09 r, 00.00m,0000563328Hz,0000000000c,0000000.000s, 020.3C,00002195
2016-04-10 16:11:06 r, 00.00m,0000563349Hz,0000000000c,0000000.000s, 020.6C,00002195
2016-04-10 16:21:06 r, 00.00m,0000563304Hz,0000000000c,0000000.000s, 019.9C,00002195
2016-04-10 16:31:07 r, 00.00m,0000563134Hz,0000000000c,0000000.000s, 019.3C,00002195
2016-04-10 16:41:06 r, 00.00m,0000563118Hz,0000000000c,0000000.000s, 019.0C,00002195
2016-04-10 16:51:06 r, 00.00m,0000563095Hz,0000000000c,0000000.000s, 019.0C,00002195
2016-04-10 17:01:06 r, 00.00m,0000563129Hz,0000000000c,0000000.000s, 019.0C,00002195
2016-04-10 17:11:06 r, 00.00m,0000563127Hz,0000000000c,0000000.000s, 018.6C,00002195
2016-04-10 17:21:06 r, 00.00m,0000563149Hz,0000000000c,0000000.000s, 018.6C,00002195
2016-04-10 17:31:08 r, 00.00m,0000563194Hz,0000000000c,0000000.000s, 018.6C,00002195
2016-04-10 17:41:06 r, 00.00m,0000563206Hz,0000000000c,0000000.000s, 019.0C,00002195
2016-04-10 17:51:06 r, 00.00m,0000563170Hz,0000000000c,0000000.000s, 019.0C,00002195
2016-04-10 18:01:06 r, 00.00m,0000563242Hz,0000000000c,0000000.000s, 019.0C,00002195
2016-04-10 18:11:06 r, 00.00m,0000563173Hz,0000000000c,0000000.000s, 019.0C,00002195
2016-04-10 18:21:06 r, 00.00m,0000563182Hz,0000000000c,0000000.000s, 018.3C,00002195
2016-04-10 18:31:06 r, 00.00m,0000563102Hz,0000000000c,0000000.000s, 018.0C,00002195
2016-04-10 18:41:06 r, 00.00m,0000563033Hz,0000000000c,0000000.000s, 017.7C,00002195
2016-04-10 18:51:06 r, 00.00m,0000563060Hz,0000000000c,0000000.000s, 017.7C,00002195
2016-04-10 19:01:07 r, 00.00m,0000563125Hz,0000000000c,0000000.000s, 017.7C,00002195
2016-04-10 19:11:06 r, 00.00m,0000563119Hz,0000000000c,0000000.000s, 018.0C,00002195
2016-04-10 19:21:06 r, 00.00m,0000563009Hz,0000000000c,0000000.000s, 018.0C,00002195
2016-04-10 19:31:08 r, 00.00m,0000562951Hz,0000000000c,0000000.000s, 017.7C,00002195
2016-04-10 19:41:06 r, 05.92m,0000381536Hz,0000000000c,0000000.000s, 017.0C,00002195
2016-04-10 19:51:06 r, 05.95m,0000369721Hz,0000000000c,0000000.000s, 016.7C,00002195
2016-04-10 20:01:06 r, 07.02m,0000139193Hz,0000000000c,0000000.000s, 016.4C,00002195
2016-04-10 20:11:06 r, 07.31m,0000105586Hz,0000000000c,0000000.000s, 016.1C,00002195
2016-04-10 20:21:06 r, 08.28m,0000043482Hz,0000000000c,0000000.000s, 015.7C,00002195
2016-04-10 20:31:09 r, 09.79m,0000010834Hz,0000000000c,0000000.000s, 015.4C,00002195
2016-04-10 20:41:07 r, 11.63m,0000001984Hz,0000000000c,0000000.000s, 015.4C,00002195
2016-04-10 20:51:06 r, 13.59m,0000000326Hz,0000000000c,0000000.000s, 015.1C,00002195
2016-04-10 21:01:08 r, 15.23m,0000000073Hz,0000006411c,0000000.014s, 014.8C,00002195
2016-04-10 21:11:06 r, 16.01m,0000000033Hz,0000013228c,0000000.029s, 014.8C,00002195
2016-04-10 21:21:06 r, 16.29m,0000000027Hz,0000017048c,0000000.037s, 014.8C,00002195
2016-04-10 21:31:07 r, 16.05m,0000000033Hz,0000013723c,0000000.030s, 014.8C,00002195
2016-04-10 21:41:09 r, 15.44m,0000000060Hz,0000007829c,0000000.017s, 014.8C,00002195
2016-04-10 21:51:06 r, 15.87m,0000000040Hz,0000011619c,0000000.025s, 014.8C,00002195
2016-04-10 22:01:06 r, 16.13m,0000000032Hz,0000014759c,0000000.032s, 014.5C,00002195
2016-04-10 22:11:06 r, 16.82m,0000000016Hz,0000027820c,0000000.060s, 014.5C,00002195
2016-04-10 22:21:06 r, 16.59m,0000000020Hz,0000022650c,0000000.049s, 014.1C,00002195
2016-04-10 22:31:06 r, 16.67m,0000000019Hz,0000024100c,0000000.052s, 014.1C,00002195
2016-04-10 22:41:06 r, 16.41m,0000000024Hz,0000019138c,0000000.042s, 013.8C,00002195
2016-04-10 22:51:06 r, 16.28m,0000000027Hz,0000016907c,0000000.037s, 013.8C,00002195
2016-04-10 23:01:06 r, 16.17m,0000000031Hz,0000015286c,0000000.033s, 013.8C,00002195
2016-04-10 23:11:07 r, 15.84m,0000000040Hz,0000011280c,0000000.024s, 013.8C,00002195
2016-04-10 23:21:06 r, 15.69m,0000000047Hz,0000009857c,0000000.021s, 013.8C,00002195
2016-04-10 23:31:06 r, 15.92m,0000000038Hz,0000012120c,0000000.026s, 013.8C,00002195
2016-04-10 23:41:06 r, 15.92m,0000000038Hz,0000012171c,0000000.026s, 013.8C,00002195
2016-04-10 23:51:06 r, 15.79m,0000000043Hz,0000010853c,0000000.024s, 013.8C,00002195
